Date String (YYYY-MM-DD hh:mm:ss) UTC,Instrument flags,Ambient pressure (hPa),Sample flow (lpm),Bypass flow (lpm),Sample temperature (°C),Ambient temperature (°C),ASC tube jacket temperature (°C),LED temperature (°C),Box temperature (°C),Sample RH (%),Span deviation,Mass concentration (μg/m³),Mass concentration (μg/m³),Mass concentration (μg/m³)
DateTimeUTC,F1_M11,P_M11,Q1_M11,Q2_M11,T1_M11,T2_M11,T3_M11,T4_M11,T5_M11,U1_M11,ZSPAN_M11,X0_M11,X2_M11,X1_M11
2021-11-16 19:00:00,,0816.4,5.01,0.00,30.1,29.2,00.0,39.1,31.8,07.3,0000.0,0004.49,0000.54,0000.25
2021-11-16 19:01:00,,0816.3,4.98,0.00,30.1,29.2,00.0,39.1,31.8,07.3,0000.0,0004.55,0000.57,0000.25
2021-11-16 19:02:00,,0816.2,5.01,0.00,30.1,29.2,00.0,39.1,31.9,07.3,0000.0,0004.47,0000.55,0000.25
2021-11-16 19:03:00,,0816.3,5.01,0.00,30.1,29.3,00.0,39.1,31.9,07.2,0000.0,0004.56,0000.56,0000.25
2021-11-16 19:04:00,,0816.4,5.00,0.00,30.2,29.3,00.0,39.1,31.9,07.3,0000.0,0004.80,0000.57,0000.26
2021-11-16 19:05:00,,0816.4,4.99,0.00,30.2,29.3,00.0,39.1,31.9,07.3,0000.0,0004.80,0000.55,0000.26
2021-11-16 19:06:00,,0816.4,5.01,0.00,30.2,29.3,00.0,39.2,31.9,07.3,0000.0,0005.61,0000.52,0000.26
2021-11-16 19:07:00,,0816.3,4.99,0.00,30.2,29.3,00.0,39.2,31.9,07.3,0000.0,0005.85,0000.52,0000.26
2021-11-16 19:08:00,,0816.2,5.00,0.00,30.2,29.3,00.0,39.2,31.9,07.4,0000.0,0005.94,0000.53,0000.26
2021-11-16 19:09:00,,0816.3,5.01,0.00,30.2,29.3,00.0,39.2,31.9,07.3,0000.0,0004.33,0000.55,0000.26
2021-11-16 19:10:00,,0816.3,5.00,0.00,30.2,29.3,00.0,39.2,31.9,07.4,0000.0,0003.50,0000.59,0000.27
2021-11-16 19:11:00,,0816.3,4.99,0.00,30.2,29.4,00.0,39.2,31.9,07.4,0000.0,0004.52,0000.60,0000.27
2021-11-16 19:12:00,,0816.4,5.00,0.00,30.2,29.4,00.0,39.2,31.9,07.4,0000.0,0004.51,0000.59,0000.28
2021-11-16 19:13:00,,0816.3,5.00,0.00,30.3,29.4,00.0,39.2,31.9,07.3,0000.0,0004.44,0000.58,0000.28
2021-11-16 19:14:00,,0816.3,5.00,0.00,30.3,29.4,00.0,39.2,31.9,07.3,0000.0,0004.74,0000.59,0000.29
2021-11-16 19:15:00,,0816.3,5.01,0.00,30.3,29.4,00.0,39.2,32.0,07.3,0000.0,0004.62,0000.60,0000.29
2021-11-16 19:16:00,,0816.2,5.00,0.00,30.3,29.4,00.0,39.3,32.0,07.3,0000.0,0004.52,0000.60,0000.29
2021-11-16 19:17:00,,0816.2,5.00,0.00,30.3,29.4,00.0,39.3,32.0,07.3,0000.0,0003.83,0000.62,0000.29
2021-11-16 19:18:00,,0816.1,5.00,0.00,30.3,29.4,00.0,39.3,32.0,07.3,0000.0,0003.30,0000.64,0000.30
2021-11-16 19:19:00,,0816.2,4.99,0.00,30.3,29.5,00.0,39.3,32.1,07.3,0000.0,0003.24,0000.63,0000.30
2021-11-16 19:20:00,,0816.1,5.00,0.00,30.4,29.5,00.0,39.3,32.0,07.4,0000.0,0003.41,0000.61,0000.30
2021-11-16 19:21:00,,0816.0,4.99,0.00,30.4,29.5,00.0,39.3,32.0,07.3,0000.0,0004.46,0000.59,0000.30
2021-11-16 19:22:00,,0816.1,5.00,0.00,30.4,29.5,00.0,39.3,32.0,07.3,0000.0,0003.17,0000.55,0000.29
2021-11-16 19:23:00,,0816.1,5.01,0.00,30.4,29.5,00.0,39.3,32.0,07.3,0000.0,0003.46,0000.54,0000.29
2021-11-16 19:24:00,,0816.1,5.01,0.00,30.4,29.5,00.0,39.4,32.1,07.4,0000.0,0004.68,0000.56,0000.29
2021-11-16 19:25:00,,0816.2,4.99,0.00,30.4,29.5,00.0,39.4,32.1,07.3,0000.0,0004.33,0000.55,0000.29
2021-11-16 19:26:00,,0816.2,5.00,0.00,30.4,29.5,00.0,39.4,32.1,07.4,0000.0,0005.13,0000.51,0000.28
2021-11-16 19:27:00,,0816.3,4.99,0.00,30.5,29.5,00.0,39.4,32.1,07.3,0000.0,0005.72,0000.54,0000.29
2021-11-16 19:28:00,,0816.3,5.02,0.00,30.4,28.1,00.0,39.4,31.9,07.4,0000.0,0005.79,0000.56,0000.28
2021-11-16 19:29:00,,0816.4,4.99,0.00,30.3,26.6,00.0,39.4,31.6,07.4,0000.0,0006.51,0000.60,0000.28
2021-11-16 19:30:00,,0816.3,5.01,0.00,30.2,26.7,00.0,39.3,31.6,07.5,0000.0,0007.10,0000.62,0000.28
2021-11-16 19:31:00,,0816.3,5.00,0.00,30.1,27.0,00.0,39.3,31.5,07.5,0000.0,0006.98,0000.65,0000.28
2021-11-16 19:32:00,,0816.3,5.00,0.00,30.0,27.4,00.0,39.2,31.4,07.5,0000.0,0005.68,0000.66,0000.29
2021-11-16 19:33:00,,0816.3,5.01,0.00,30.0,27.8,00.0,39.2,31.5,07.5,0000.0,0005.70,0000.67,0000.28
2021-11-16 19:34:00,,0816.3,4.99,0.00,30.0,28.1,00.0,39.1,31.6,07.6,0000.0,0005.45,0000.66,0000.28
2021-11-16 19:35:00,,0816.2,5.01,0.00,30.0,28.3,00.0,39.1,31.7,07.6,0000.0,0004.46,0000.67,0000.28
2021-11-16 19:36:00,,0816.2,5.00,0.00,30.1,28.6,00.0,39.1,31.7,07.6,0000.0,0004.61,0000.71,0000.28
2021-11-16 19:37:00,,0816.3,4.99,0.00,30.1,28.7,00.0,39.1,31.8,07.6,0000.0,0005.15,0000.77,0000.28
2021-11-16 19:38:00,,0816.2,5.00,0.00,30.1,28.8,00.0,39.1,31.8,07.6,0000.0,0004.98,0000.78,0000.29
2021-11-16 19:39:00,,0816.1,5.00,0.00,30.1,28.9,00.0,39.1,31.8,07.6,0000.0,0005.65,0000.76,0000.29
2021-11-16 19:40:00,,0816.2,5.00,0.00,30.1,29.0,00.0,39.1,31.9,07.6,0000.0,0005.00,0000.70,0000.29
2021-11-16 19:41:00,,0816.1,4.99,0.00,30.2,29.1,00.0,39.1,31.9,07.6,0000.0,0004.27,0000.67,0000.29
2021-11-16 19:42:00,,0816.3,5.01,0.00,30.2,29.2,00.0,39.1,31.9,07.6,0000.0,0004.90,0000.64,0000.29
2021-11-16 19:43:00,,0816.2,4.99,0.00,30.2,29.2,00.0,39.1,31.9,07.6,0000.0,0005.48,0000.60,0000.29
2021-11-16 19:44:00,,0816.2,4.99,0.00,30.2,29.3,00.0,39.2,31.9,07.5,0000.0,0006.40,0000.60,0000.29
2021-11-16 19:45:00,,0816.1,5.01,0.00,30.3,29.3,00.0,39.2,32.0,07.5,0000.0,0006.83,0000.61,0000.29
2021-11-16 19:46:00,,0816.1,4.99,0.00,30.3,29.4,00.0,39.2,32.0,07.5,0000.0,0006.45,0000.57,0000.29
2021-11-16 19:47:00,,0816.1,5.01,0.00,30.3,29.4,00.0,39.2,32.1,07.5,0000.0,0006.27,0000.53,0000.28
2021-11-16 19:48:00,,0816.2,5.00,0.00,30.3,29.5,00.0,39.2,32.1,07.6,0000.0,0004.98,0000.50,0000.28
2021-11-16 19:49:00,,0816.1,5.00,0.00,30.3,28.4,00.0,39.2,31.9,07.5,0000.0,0005.60,0000.50,0000.28
2021-11-16 19:50:00,,0816.1,5.00,0.00,30.2,26.4,00.0,39.2,31.5,07.5,0000.0,0005.76,0000.48,0000.28
2021-11-16 19:51:00,,0816.2,5.00,0.00,30.1,26.2,00.0,39.2,31.5,07.6,0000.0,0005.86,0000.50,0000.27
2021-11-16 19:52:00,,0816.1,5.01,0.00,30.0,26.7,00.0,39.1,31.5,07.6,0000.0,0005.94,0000.55,0000.28
2021-11-16 19:53:00,,0816.1,5.00,0.00,29.9,27.1,00.0,39.1,31.4,07.6,0000.0,0005.63,0000.62,0000.28
2021-11-16 19:54:00,,0816.1,4.98,0.00,29.9,27.5,00.0,39.0,31.4,07.7,0000.0,0004.90,0000.63,0000.29
2021-11-16 19:55:00,,0816.1,5.00,0.00,29.9,27.9,00.0,39.0,31.5,07.8,0000.0,0004.46,0000.64,0000.29
2021-11-16 19:56:00,,0816.2,5.00,0.00,29.9,28.1,00.0,39.0,31.5,07.7,0000.0,0005.34,0000.70,0000.29
2021-11-16 19:57:00,,0816.2,5.01,0.00,29.9,28.4,00.0,39.0,31.6,07.7,0000.0,0005.32,0000.69,0000.29
2021-11-16 19:58:00,,0816.0,5.00,0.00,30.0,28.5,00.0,39.0,31.6,07.7,0000.0,0005.34,0000.71,0000.29
2021-11-16 19:59:00,,0816.1,4.99,0.00,30.0,28.7,00.0,39.0,31.6,07.7,0000.0,0005.58,0000.76,0000.29
